date,time,DOY,Ta_1_1_1,RH_1_1_1,LWin_1_1_1,LWout_1_1_1,SWin_1_1_1,SWout_1_1_1,PPFD_1_1_1,SWC_1_1_1,Ts_1_1_1
[yyyy-mm-dd],[HH:MM],[ddd.ddd],[K],[%],[W+1m-2],[W+1m-2],[W+1m-2],[W+1m-2],[µmol+1m-2s-1],[m+3m-3],[K]
2014-03-25,00:30,84.020,262.21233333333333,83.435333333333347,-5.4106666666666676,-8.8000000000000007,-0.36233333333333334,-1.0626666666666666,-2.36666666666666727E-002,0.20000000000000009,273.27733333333339
2014-03-25,01:00,84.041,261.64299999999997,84.149666666666675,-5.1693333333333333,-9.9649999999999999,-0.44133333333333336,-0.80733333333333313,-1.86666666666666717E-002,0.20000000000000009,273.27933333333345
2014-03-25,01:30,84.062,260.97833333333347,78.405000000000001,-5.3329999999999993,-9999.0,-0.34766666666666662,-1.0230000000000004,-1.36666666666666672E-002,0.20000000000000009,273.28300000000007
2014-03-25,02:00,84.083,260.40400000000005,78.159666666666666,-5.8329999999999993,-9999.0,-0.21333333333333335,-1.5720000000000003,-1.36666666666666707E-002,0.20000000000000009,273.27833333333342
2014-03-25,02:30,84.104,259.74733333333330,76.935666666666677,-7.5616666666666656,-9999.0,4.26666666666666514E-002,-2.8786666666666663,-1.36666666666666707E-002,0.20000000000000009,273.27866666666671
2014-03-25,03:00,84.124,259.11466666666666,76.019666666666666,-8.0446666666666680,-9999.0,0.30399999999999999,-3.0403333333333338,-1.43333333333333368E-002,0.20000000000000009,273.27833333333342
2014-03-25,03:30,84.145,258.69500000000005,77.551666666666691,-8.1349999999999998,-9999.0,0.29900000000000004,-3.0663333333333331,-1.00000000000000019E-002,0.20000000000000009,273.27699999999999
2014-03-25,04:00,84.166,258.38166666666660,78.152333333333303,-7.2320000000000002,-9999.0,0.19166666666666674,-2.4173333333333331,-1.13333333333333359E-002,0.20000000000000009,273.28000000000003
2014-03-25,04:30,84.187,258.06333333333333,78.489666666666650,-6.8203333333333340,-9999.0,5.43333333333333376E-002,-2.0956666666666659,-1.60000000000000073E-002,0.20000000000000009,273.28233333333338
2014-03-25,05:00,84.208,257.86800000000005,79.614000000000019,-7.3966666666666674,-9999.0,0.17500000000000002,-2.5316666666666663,-1.43333333333333385E-002,0.20000000000000009,273.27999999999997
2014-03-25,05:30,84.229,257.64666666666670,79.641666666666666,-7.3383333333333347,-9999.0,0.18733333333333332,-2.3386666666666671,4.26666666666666652E-002,0.20000000000000009,273.28166666666675
2014-03-25,06:00,84.249,257.44033333333329,79.801666666666677,-7.6340000000000003,-9999.0,0.77833333333333343,6.96666666666665990E-002,5.4643333333333333,0.20000000000000009,273.27833333333336
2014-03-25,06:30,84.270,257.34633333333335,79.672333333333327,-6.6826666666666670,-9999.0,6.4086666666666661,24.829333333333338,48.267333333333340,0.20000000000000009,273.28300000000007
2014-03-25,07:00,84.291,257.36799999999988,78.109666666666683,-6.7263333333333328,-9999.0,20.027333333333331,84.675333333333313,148.48200000000003,0.20000000000000009,273.27433333333340
2014-03-25,07:30,84.312,257.55566666666670,74.817000000000007,-7.1266666666666660,-9999.0,39.785333333333341,175.50033333333329,291.27999999999997,0.20000000000000009,273.27999999999997
2014-03-25,08:00,84.333,257.66633333333328,72.732666666666674,-5.1129999999999995,-9999.0,43.329666666666654,188.46566666666675,349.17900000000003,0.20000000000000009,273.27966666666663
2014-03-25,08:30,84.354,258.03266666666667,68.943333333333342,-4.2823333333333347,-9999.0,76.067666666666668,334.91600000000005,609.20133333333331,0.20000000000000009,273.28200000000004
2014-03-25,09:00,84.374,258.26600000000002,64.529000000000011,-3.7229999999999999,-9999.0,96.743666666666655,425.44966666666659,774.62733333333324,0.20000000000000009,273.27666666666676
2014-03-25,09:30,84.395,258.32033333333328,61.924666666666674,-2.6399999999999997,-9999.0,99.014333333333326,430.60599999999999,809.89633333333336,0.20000000000000009,273.27600000000007
2014-03-25,10:00,84.416,258.67366666666669,60.719999999999992,-3.2129999999999996,-9999.0,94.110666666666688,404.11466666666666,778.22433333333345,0.20000000000000009,273.27733333333339
2014-03-25,10:30,84.437,258.51433333333341,69.004000000000005,-2.2183333333333333,-9999.0,87.004666666666665,356.91133333333335,696.93266666666682,0.20000000000000009,273.27933333333334
2014-03-25,11:00,84.458,258.81333333333333,57.891666666666659,-0.90900000000000003,-9999.0,130.14066666666665,555.18466666666666,1064.6533333333336,0.20000000000000009,273.28166666666669
2014-03-25,11:30,84.479,259.11533333333335,56.422666666666672,-1.3119999999999996,-9999.0,120.36433333333333,517.17899999999997,1004.4716666666668,0.20000000000000009,273.27966666666669
2014-03-25,12:00,84.499,259.28466666666668,54.979666666666667,-0.68233333333333301,-9999.0,126.16833333333331,538.48500000000001,1049.2706666666668,0.20000000000000009,273.27666666666676
2014-03-25,12:30,84.520,259.35100000000000,53.195000000000000,-1.7009999999999998,-9999.0,106.79699999999998,462.05333333333328,919.47266666666678,0.20000000000000009,273.27899999999994
2014-03-25,13:00,84.541,259.68133333333333,54.798999999999999,-1.2890000000000004,-9999.0,122.80133333333336,523.59766666666667,1028.0903333333331,0.20000000000000009,273.27733333333339
2014-03-25,13:30,84.562,260.05933333333343,50.958999999999996,0.95433333333333314,-9999.0,156.65700000000001,671.62433333333342,1308.2133333333336,0.20000000000000009,273.27566666666667
2014-03-25,14:00,84.583,259.72300000000001,54.592333333333322,0.35733333333333334,-9999.0,123.64766666666671,534.34799999999984,1025.8766666666666,0.20000000000000009,273.28033333333337
2014-03-25,14:30,84.604,259.81733333333329,54.564333333333352,-1.3876666666666670,-9999.0,104.91233333333335,480.20099999999985,919.08966666666663,0.20000000000000009,273.27766666666673
2014-03-25,15:00,84.624,259.91266666666667,61.564666666666675,-2.2356666666666665,-9999.0,62.003666666666689,267.68700000000001,528.26499999999999,0.20000000000000009,273.27766666666673
2014-03-25,15:30,84.645,260.69233333333335,55.876000000000005,-3.8673333333333328,-9999.0,63.133666666666677,278.48266666666666,546.67599999999993,0.20000000000000009,273.28133333333335
2014-03-25,16:00,84.666,261.14933333333335,49.445999999999998,-3.6476666666666664,-9999.0,55.661333333333324,246.98133333333337,479.45466666666670,0.20000000000000009,273.27533333333344
2014-03-25,16:30,84.687,261.38766666666663,50.128333333333345,-4.3199999999999994,-9999.0,45.231000000000016,202.88433333333333,387.31999999999999,0.20000000000000009,273.27766666666668
2014-03-25,17:00,84.708,261.73466666666667,48.356333333333325,-4.4756666666666662,-9999.0,45.828999999999994,206.38599999999997,372.04500000000002,0.20000000000000009,273.27900000000011
2014-03-25,17:30,84.729,261.54533333333325,52.768333333333324,-6.1363333333333347,-9999.0,20.324333333333339,89.530666666666676,167.45199999999997,0.20000000000000009,273.27766666666673
2014-03-25,18:00,84.749,261.39066666666668,55.354999999999997,-7.1263333333333323,-9999.0,9.2430000000000021,38.009999999999991,67.712666666666664,0.20000000000000009,273.27600000000007
2014-03-25,18:30,84.770,261.31166666666672,53.827333333333335,-9.0342105263157908,-9999.0,2.1219999999999999,5.6813333333333311,14.968666666666660,0.20000000000000009,273.27666666666676
2014-03-25,19:00,84.791,260.89933333333335,59.373333333333321,-9.6162499999999991,-9999.0,0.22800000000000004,-3.0846666666666676,0.27366666666666661,0.20000000000000009,273.27900000000011
2014-03-25,19:30,84.812,260.59133333333341,62.549666666666660,-9999.0,-9999.0,0.35133333333333333,-3.7069999999999994,-1.63333333333333351E-002,0.20000000000000009,273.27500000000015
2014-03-25,20:00,84.833,260.46766666666673,63.327666666666673,-9999.0,-9999.0,0.22300000000000011,-2.6096666666666670,-2.30000000000000066E-002,0.20000000000000009,273.27566666666672
2014-03-25,20:30,84.854,260.34566666666677,61.652000000000008,-9.7699999999999996,-9999.0,-7.59999999999999981E-002,-2.0573333333333337,-1.96666666666666691E-002,0.20000000000000009,273.27566666666667
2014-03-25,21:00,84.874,259.98200000000003,60.343333333333327,-9.9499999999999993,-9999.0,-2.56666666666666744E-002,-3.0400000000000005,-2.43333333333333388E-002,0.20000000000000009,273.27900000000011
2014-03-25,21:30,84.895,259.44366666666662,60.665666666666674,-9999.0,-9999.0,0.28533333333333338,-3.5493333333333341,-2.26666666666666683E-002,0.20000000000000009,273.27866666666665
2014-03-25,22:00,84.916,259.24100000000010,61.032333333333327,-9999.0,-9999.0,0.45333333333333337,-3.2143333333333333,-1.56666666666666655E-002,0.20000000000000009,273.27666666666670
2014-03-25,22:30,84.937,259.02833333333331,62.351333333333351,-9999.0,-9999.0,0.33000000000000002,-3.2556666666666660,-1.30000000000000029E-002,0.20000000000000009,273.27533333333338
2014-03-25,23:00,84.958,258.83333333333337,64.491000000000014,-9999.0,-9999.0,0.27166666666666667,-3.0936666666666670,-7.66666666666666712E-003,0.20000000000000009,273.27800000000008
2014-03-25,23:30,84.979,258.50900000000001,66.256999999999991,-9999.0,-9999.0,0.27400000000000002,-3.1936666666666671,-1.20000000000000037E-002,0.20000000000000009,273.27700000000010
2014-03-26,00:00,85.000,258.17400000000004,67.976333333333343,-9999.0,-9999.0,0.20966666666666664,-3.1356666666666668,-1.16666666666666655E-002,0.20000000000000009,273.27700000000010
